Regional Weather Roundup
Issued by NWS

Home | Current Version | Previous Version | Text Only | Print | Product List | Glossary Off
Versions: 1 2 3 4 5 6 7 8 9 10 11 12 13 14 15 16 17 18 19 20 21 22 23 24 25 26 27

000
ASUS45 KBOU 102007
RWRCO

WEATHER ROUNDUP FOR COLORADO
NATIONAL WEATHER SERVICE DENVER/BOULDER CO
100 PM MST SAT DEC 10 2016

NOTE: "FAIR" INDICATES FEW OR NO CLOUDS BELOW 12000 FEET WITH NO
SIGNIFICANT WEATHER AND/OR OBSTRUCTIONS TO VISIBILITY.

COZ001>005-013-030-031-102100-
...NORTHWEST COLORADO...

CITY           SKY/WX    TMP DP  RH WIND       PRES   REMARKS
CRAIG          LGT RAIN  42  30  62 W14G23    29.91F
HAYDEN         CLOUDY    37  28  70 W14       29.91F
MEEKER         CLOUDY    39  33  79 SW18      29.96F
MOUNT WERNER   NOT AVBL
STEAMBOAT SPGS CLOUDY    32  31  98 CALM      29.92F
WALDEN           N/A     34  28  80 S15G24    29.88F WCI  24
$$

COZ006>008-011-102100-
...WEST CENTRAL VALLEYS...

CITY           SKY/WX    TMP DP  RH WIND       PRES   REMARKS
GRAND JUNCTION FAIR      34  23  64 CALM      30.04F
MONTROSE       FAIR      43  27  53 CALM      30.04F
EAGLE          FLURRIES  37  30  75 W13       30.01S
RIFLE          CLOUDY    30  24  78 CALM      30.03F
DELTA          NOT AVBL
NUCLA          FAIR      43  28  56 CALM      30.09F
$$

COZ017>023-064>068-102100-
...SOUTHWEST COLORADO...

CITY           SKY/WX    TMP DP  RH WIND       PRES   REMARKS
DURANGO        FAIR      47  25  42 E5        30.12F
CORTEZ         FAIR      48  29  47 SW6       30.09F
PAGOSA SPRINGS FAIR      43  24  47 S6        30.14F
TELLURIDE      NOT AVBL
WOLF CREEK PAS FAIR      27  21  80 S21G29    30.21F WCI  13
$$

COZ009-010-012-014-032>034-037-058>063-102100-
...CENTRAL COLORADO...

CITY           SKY/WX    TMP DP  RH WIND       PRES   REMARKS
ASPEN          CLOUDY    40  25  55 N8        29.99F
BUENA VISTA    FAIR      54   8  16 W30G40    29.90F
COPPER MTN     SNOW      28  21  74 W22G31    30.03F VSB 1/4 WCI  15
BERTHOUD PASS  SNOW      21   9  58 W25G40    29.96S VSB 1/4 WCI   4
COTTONWOOD PAS PTSUNNY   45   5  19 W12G36    29.96S
GUNNISON       FAIR      24  19  81 CALM      30.08F
KREMMLING      DRIZZLE   41  32  70 SW28G41   29.91F
LEADVILLE      SNOW      29  24  82 NW7       30.02R VSB 1/2 WCI  22
MONARCH PASS   PTSUNNY   28  16  59 SW36G49   30.16F WCI  12
SALIDA         FAIR      52  18  26 SW15G26   30.00F
SUNLIGHT       SNOW      27  23  86 SW25G40   30.04F VSB 1/2 WCI  11
WILKERSON PASS FAIR      37  12  35 SW23G37   30.00F
$$

COZ069>075-102100-
...SAN LUIS VALLEY/SANGRE DE CRISTO MOUNTAINS...

CITY           SKY/WX    TMP DP  RH WIND       PRES   REMARKS
ALAMOSA        FAIR      45  24  43 CALM      30.02F
LA VETA PASS   FAIR      41  19  42 NE22G41   30.00F
SAGUACHE       FAIR      41  19  42 CALM      30.05F
$$

COZ035-036-038>040-102100-
...NORTHERN COLORADO FRONT RANGE...

CITY           SKY/WX    TMP DP  RH WIND       PRES   REMARKS
DENVER INTL AP PTSUNNY   47  28  47 VRB5      29.76F
DMNS CITY PARK   N/A     54  22  28 E9        29.74S
AURORA         PTSUNNY   53  28  37 NE5       29.76F
FRONT RANGE AP PTSUNNY   54  36  50 N15G21    29.77F
ERIE MUNI ARPT FAIR      51  27  39 SW5       29.76F
BOULDER MUN AP FAIR      54  28  37 W35G49    29.71S
CENTENNIAL     PTSUNNY   59  24  26 N10       29.77F
BROOMFIELD     PTSUNNY   61  25  25 SW18G33   29.77F
FORT COLLINS   FAIR      36  25  64 NE6       29.75F
LONGMONT       NOT AVBL
$$

COZ041-046-047-076>085-087-088-102100-
...PIKES PEAK/PALMER DIVIDE AND SOUTHERN FOOTHILLS...

CITY           SKY/WX    TMP DP  RH WIND       PRES   REMARKS
COLO. SPRINGS  PTSUNNY   53  19  26 SE14      29.80F
A. F. ACADEMY  FAIR      54  20  26 SW16G29   29.78F
SCHRIEVER AFB  NOT AVBL
ELLICOTT       FAIR     N/A N/A N/A S10       29.80F
FALCON         FAIR      53  17  23 S9        29.83F
FORT CARSON    FAIR      62  15  16 N8        29.75F
LIMON          FAIR      63  17  17 SW14      29.76F
MONUMENT HILL  FAIR      54  14  20 W26G36    29.83F
TRINIDAD       FAIR      66  19  16 N15       29.84F
$$

COZ042>045-048>051-090-091-102100-
...NORTHEAST COLORADO...

CITY           SKY/WX    TMP DP  RH WIND       PRES   REMARKS
GREELEY ARPT   FAIR      30  22  72 E3        29.77F
AKRON          FAIR      36  25  64 VRB3      29.75F
BURLINGTON     FAIR      52  21  29 S12       29.79F
WRAY           FAIR      32  27  80 E3        29.82S
STERLING       FAIR      30  23  74 S8        29.78F WCI  23
HOLYOKE        FAIR      34  27  75 S6        29.81F WCI  29
FORT MORGAN    FAIR      31  23  71 SW6       29.78F WCI  26
$$

COZ086-089-092>099-102100-
...SOUTHEAST COLORADO...

CITY           SKY/WX    TMP DP  RH WIND       PRES   REMARKS
PUEBLO         FAIR      56  24  29 SE10      29.77F
LA JUNTA       FAIR      54  21  27 E7        29.80F
LAMAR          FAIR      48  21  34 E5        29.81F
SPRINGFIELD      N/A     65  25  22 S13       29.81F
$$




USA.gov is the U.S. government's official web portal to all federal, state and local government web resources and services.